Weather History for LGEL - December, 2012

Change the Weather History Date:

Friday, December 7, 2012

  Actual Average Record
Temperature  
Mean Temperature 48 °F -  
Max Temperature 55 °F 55 °F 68 °F (2004)
Min Temperature 41 °F 42 °F 41 °F (2012)
Degree Days  
Heating Degree Days 17    
Moisture  
Dew Point 37 °F    
Average Humidity 64    
Maximum Humidity 81    
Minimum Humidity 41    
Precipitation  
Precipitation 0.00 in - - ()
Sea Level Pressure  
Sea Level Pressure 29.88 in    
Wind  
Wind Speed 4 mph ()    
Max Wind Speed 12 mph    
Max Gust Speed -    
Visibility 6.2 miles    
Events      
Averages and records for this station are not official NWS values.
T = Trace of Precipitation, MM = Missing Value Source: Averaged Metar Reports

Daily Weather History Graph

Daily Weather History Graph

Search for Another Location

Airport or City:

Trip Planner

Search our weather history database for the weather conditions in past years. The results will help you decide how hot, cold, wet, or windy it might be!

Date:

Astronomy

Dec. 07, 2012 Rise Set
Actual Time 7:28 AM EET 5:05 PM EET
Civil Twilight 6:59 AM EET 5:35 PM EET
Nautical Twilight 6:26 AM EET 6:08 PM EET
Astronomical Twilight 5:54 AM EET 6:39 PM EET
Moon 12:33 AM EET (12/7) 12:48 PM EET (12/7)
Length of Visible Light 10h 35m
Length of Day
9h 37m
Last Quarter, 42% of the Moon is Illuminated
Dec 7
Last Quarter
Dec 13
New
Dec 20
First Quarter
Dec 28
Full
Jan 5
Last Quarter

Hourly Weather History & Observations

Time (EET) Temp. Windchill Dew Point Humidity Pressure Visibility Wind Dir Wind Speed Gust Speed Precip Events Conditions
12:50 AM 50.0 °F - 42.8 °F 76% 29.77 in 6.2 mi NNW 5.8 mph - N/A   Scattered Clouds
1:50 AM 50.0 °F - 41.0 °F 71% 29.77 in 6.2 mi NNW 5.8 mph - N/A   Scattered Clouds
2:50 AM 50.0 °F - 41.0 °F 71% 29.77 in 6.2 mi SSW 4.6 mph - N/A   Scattered Clouds
3:50 AM 50.0 °F - 41.0 °F 71% 29.74 in 6.2 mi Calm Calm - N/A   Scattered Clouds
4:50 AM 46.4 °F 42.9 °F 41.0 °F 81% 29.74 in 6.2 mi NW 6.9 mph - N/A   Partly Cloudy
5:20 AM 46.4 °F - 41.0 °F 81% 29.77 in 6.2 mi Calm Calm - N/A   Partly Cloudy
5:50 AM 46.4 °F - 39.2 °F 76% 29.77 in 6.2 mi Calm Calm - N/A   Scattered Clouds
6:20 AM 48.2 °F - 41.0 °F 76% 29.77 in 6.2 mi NW 4.6 mph - N/A   Scattered Clouds
6:50 AM 48.2 °F - 39.2 °F 71% 29.80 in 6.2 mi Calm Calm - N/A   Partly Cloudy
7:20 AM 46.4 °F 44.3 °F 39.2 °F 76% 29.80 in 6.2 mi NNW 4.6 mph - N/A   Partly Cloudy
7:50 AM 46.4 °F - 39.2 °F 76% 29.83 in 6.2 mi Calm Calm - N/A   Partly Cloudy
8:20 AM 48.2 °F - 39.2 °F 71% 29.83 in 6.2 mi Calm Calm - N/A   Partly Cloudy
8:50 AM 50.0 °F - 37.4 °F 62% 29.83 in 6.2 mi NW 6.9 mph - N/A   Partly Cloudy
9:20 AM 51.8 °F - 35.6 °F 54% 29.83 in 6.2 mi NNW 9.2 mph - N/A   Partly Cloudy
9:50 AM 53.6 °F - 39.2 °F 58% 29.83 in 6.2 mi NNW 9.2 mph - N/A   Partly Cloudy
10:20 AM 53.6 °F - 37.4 °F 54% 29.86 in 6.2 mi NNW 9.2 mph - N/A   Partly Cloudy
10:50 AM 55.4 °F - 35.6 °F 47% 29.89 in 6.2 mi NNW 8.1 mph - N/A   Partly Cloudy
11:20 AM 53.6 °F - 35.6 °F 51% 29.89 in 6.2 mi North 9.2 mph - N/A   Partly Cloudy
11:50 AM 55.4 °F - 32.0 °F 41% 29.89 in 6.2 mi WNW 9.2 mph - N/A   Partly Cloudy
12:20 PM 55.4 °F - 33.8 °F 44% 29.89 in 6.2 mi WNW 9.2 mph - N/A   Partly Cloudy
12:50 PM 55.4 °F - 32.0 °F 41% 29.89 in 6.2 mi NW 8.1 mph - N/A   Scattered Clouds
1:20 PM 55.4 °F - 33.8 °F 44% 29.89 in 6.2 mi NNW 11.5 mph - N/A   Partly Cloudy
1:50 PM 55.4 °F - 33.8 °F 44% 29.89 in 6.2 mi NNW 10.4 mph - N/A   Partly Cloudy
2:20 PM 55.4 °F - 33.8 °F 44% 29.89 in 6.2 mi NNW 9.2 mph - N/A   Partly Cloudy
2:50 PM 53.6 °F - 35.6 °F 51% 29.89 in 6.2 mi NNW 6.9 mph - N/A   Partly Cloudy
3:20 PM 55.4 °F - 33.8 °F 44% 29.89 in 6.2 mi NNW 5.8 mph - N/A   Partly Cloudy
3:50 PM 55.4 °F - 33.8 °F 44% 29.89 in 6.2 mi NNW 4.6 mph - N/A   Partly Cloudy
4:20 PM 53.6 °F - 35.6 °F 51% 29.92 in 6.2 mi Calm Calm - N/A   Partly Cloudy
4:50 PM 53.6 °F - 35.6 °F 51% 29.92 in 6.2 mi Calm Calm - N/A   Scattered Clouds
5:20 PM 50.0 °F - 33.8 °F 54% 29.92 in 6.2 mi Calm Calm - N/A   Partly Cloudy
5:50 PM 46.4 °F - 37.4 °F 71% 29.92 in 6.2 mi Calm Calm - N/A   Partly Cloudy
6:20 PM 50.0 °F - 35.6 °F 58% 29.95 in 6.2 mi Calm Calm - N/A   Partly Cloudy
6:50 PM 44.6 °F - 37.4 °F 76% 29.95 in 6.2 mi Calm Calm - N/A   Partly Cloudy
7:20 PM 44.6 °F - 37.4 °F 76% 29.95 in 6.2 mi Calm Calm - N/A   Partly Cloudy
7:50 PM 44.6 °F 41.4 °F 37.4 °F 76% 29.98 in 6.2 mi North 5.8 mph - N/A   Partly Cloudy
8:20 PM 44.6 °F 42.2 °F 37.4 °F 76% 29.98 in 6.2 mi North 4.6 mph - N/A   Partly Cloudy
8:50 PM 42.8 °F 40.1 °F 35.6 °F 76% 29.98 in 6.2 mi North 4.6 mph - N/A   Partly Cloudy
9:20 PM 41.0 °F - 35.6 °F 81% 29.98 in 6.2 mi Calm Calm - N/A   Partly Cloudy
9:50 PM 42.8 °F - 37.4 °F 81% 29.98 in 6.2 mi Calm Calm - N/A   Partly Cloudy
10:50 PM 41.0 °F - 35.6 °F 81% 30.01 in 6.2 mi Calm Calm - N/A   Partly Cloudy
11:50 PM 41.0 °F - 35.6 °F 81% 30.01 in 6.2 mi Calm Calm - N/A   Partly Cloudy